Stations météo

réclame
Mon MeteoGroup
Lakenheath/RAF, Grande-Bretagne (3583): Température de l'air & dewpoint: 08.08.2018 22:00:00 - 14.08.2018 22:00:00 (BST)Lakenheath/RAF, Grande-Bretagne (3583): Vitesse du vent: 08.08.2018 22:00:00 - 14.08.2018 22:00:00 (BST)Lakenheath/RAF, Grande-Bretagne (3583): Direction du vent: 08.08.2018 22:00:00 - 14.08.2018 22:00:00 (BST)Lakenheath/RAF, Grande-Bretagne (3583): reduced air pressure: 08.08.2018 22:00:00 - 14.08.2018 22:00:00 (BST)Lakenheath/RAF, Grande-Bretagne (3583): visibility: 08.08.2018 22:00:00 - 14.08.2018 22:00:00 (BST)Lakenheath/RAF, Grande-Bretagne (3583): Quantités de précipitations: 08.08.2018 22:00:00 - 14.08.2018 22:00:00 (BST)
Date & Time tt [°C] td [°C] ff [km/h] ff [knt] dd ppp [hPa] vv [km] rr [mm]
14.08.2018 22:00:00 20,4 15,2 9 5 WSW 1015,9 10 -
14.08.2018 21:00:00 20,4 14,7 8 4 W 1015,9 10 -
14.08.2018 20:00:00 22,0 14,4 16 9 W 1015,5 10 -
14.08.2018 19:00:00 22,7 14,0 15 8 W 1015,2 10 -
14.08.2018 18:00:00 23,3 13,7 18 10 W 1015,2 10 -
14.08.2018 17:00:00 23,6 12,9 21 11 WSW 1014,8 10 -
14.08.2018 16:00:00 24,1 12,7 21 11 W 1015,2 10 -
14.08.2018 15:00:00 22,2 12,7 13 7 W 1015,5 10 -
14.08.2018 14:00:00 21,5 12,6 16 9 W 1015,5 10 -
14.08.2018 13:00:00 21,4 12,5 16 9 W 1015,2 10 -
14.08.2018 12:00:00 20,7 12,9 21 11 W 1015,2 10 -
14.08.2018 11:00:00 19,7 12,7 16 9 W 1015,2 10 -
14.08.2018 10:00:00 18,0 13,3 15 8 W 1014,8 10 -
14.08.2018 09:00:00 16,5 13,0 13 7 W 1014,5 10 -
14.08.2018 08:00:00 15,3 12,4 15 8 W 1014,2 10 -
14.08.2018 07:00:00 14,9 12,4 13 7 W 1013,8 10 -
14.08.2018 06:00:00 14,6 12,3 15 8 W 1013,2 10 -
14.08.2018 05:00:00 15,2 12,7 13 7 W 1012,5 10 -
14.08.2018 04:00:00 15,3 12,8 13 7 W 1012,5 10 -
14.08.2018 03:00:00 15,3 12,6 13 7 WNW 1011,8 10 -
14.08.2018 02:00:00 16,4 13,9 11 6 WNW 1011,8 10 -
14.08.2018 01:00:00 16,7 14,5 9 5 WNW 1011,1 10 -
14.08.2018 00:00:00 17,1 14,9 13 7 W 1010,8 10 -
13.08.2018 23:00:00 17,6 16,3 18 10 WNW 1010,1 10 -
13.08.2018 22:00:00 17,2 16,0 13 7 WNW 1009,4 10 -
13.08.2018 21:00:00 17,0 15,7 8 4 W 1008,4 10 0,0
13.08.2018 20:00:00 17,6 16,3 11 6 WNW 1007,7 10 1,3
13.08.2018 19:00:00 18,9 17,2 8 4 W 1007,4 10 0,5
13.08.2018 18:00:00 19,3 16,5 5 3 W 1006,7 10 0,3
13.08.2018 17:00:00 19,5 16,5 5 3 NW 1006,4 10 0,0
13.08.2018 16:00:00 19,1 16,1 5 3 WNW 1006,0 10 0,5
13.08.2018 15:00:00 19,7 14,9 13 7 N 1006,4 10 -
13.08.2018 14:00:00 22,5 16,0 13 7 WNW 1005,7 10 0,0
13.08.2018 13:00:00 20,7 16,1 15 8 W 1005,7 10 0,0
13.08.2018 12:00:00 19,4 15,2 9 5 WNW 1005,7 10 -
13.08.2018 11:00:00 18,3 15,3 13 7 NW 1005,4 10 -
13.08.2018 10:00:00 18,0 15,1 9 5 WSW 1005,0 10 -
13.08.2018 09:00:00 16,4 14,7 0 0 N 1005,4 10 -
13.08.2018 08:00:00 15,9 14,4 9 5 WSW 1005,0 10 -
13.08.2018 07:00:00 15,8 14,7 8 4 SW 1005,0 10 -
13.08.2018 06:00:00 15,6 14,5 5 3 WSW 1004,7 10 -
13.08.2018 05:00:00 15,7 14,7 11 6 SW 1004,3 9 -
13.08.2018 04:00:00 15,4 14,3 0 0 N 1004,7 10 -
13.08.2018 03:00:00 15,2 14,1 5 3 SSE 1005,0 10 -
13.08.2018 02:00:00 15,4 13,9 0 0 N 1005,4 10 0,3
13.08.2018 01:00:00 15,5 13,9 5 3 SE 1006,0 10 1,0
13.08.2018 00:00:00 16,7 14,0 13 7 S 1006,4 10 0,8
12.08.2018 23:00:00 17,8 13,7 5 3 SSE 1006,4 10 -
12.08.2018 22:00:00 18,6 13,7 5 3 S 1006,7 10 -
12.08.2018 21:00:00 19,2 12,9 5 3 S 1007,4 10 -
12.08.2018 20:00:00 19,8 12,3 11 6 SSW 1007,0 10 -
12.08.2018 19:00:00 20,3 12,8 15 8 S 1007,4 10 0,0
12.08.2018 18:00:00 21,7 12,5 16 9 SSW 1007,7 10 -
12.08.2018 17:00:00 21,1 12,8 24 13 SSW 1008,4 10 -
12.08.2018 16:00:00 21,4 13,6 16 9 S 1008,7 10 -
12.08.2018 15:00:00 22,0 12,5 24 13 SW 1009,1 10 -
12.08.2018 14:00:00 22,8 11,5 24 13 SSW 1009,4 10 -
12.08.2018 13:00:00 22,6 12,8 22 12 SW 1009,4 10 -
12.08.2018 12:00:00 21,9 12,2 26 14 SSW 1010,1 10 -
12.08.2018 11:00:00 20,2 14,3 21 11 SSW 1010,4 10 -
12.08.2018 10:00:00 19,6 14,0 24 13 SSW 1010,8 10 -
12.08.2018 09:00:00 18,8 15,5 16 9 SSW 1010,8 10 -
12.08.2018 08:00:00 17,7 15,0 15 8 S 1011,4 10 -
12.08.2018 07:00:00 17,0 14,8 13 7 S 1011,4 10 -
12.08.2018 06:00:00 16,6 14,6 9 5 S 1012,1 10 0,0
12.08.2018 05:00:00 16,5 14,8 9 5 S 1012,5 10 0,0
12.08.2018 04:00:00 16,4 14,9 9 5 S 1013,1 10 0,8
12.08.2018 03:00:00 16,5 14,8 11 6 S 1014,2 10 -
12.08.2018 02:00:00 16,4 14,9 11 6 S 1014,8 10 0,0
12.08.2018 01:00:00 16,2 14,7 11 6 SSE 1015,5 10 -
12.08.2018 00:00:00 16,1 14,8 11 6 S 1016,5 10 0,5
11.08.2018 23:00:00 16,1 15,0 13 7 S 1017,2 10 1,3
11.08.2018 22:00:00 16,3 14,8 9 5 S 1018,2 10 1,0
11.08.2018 21:00:00 17,7 14,0 18 10 SSW 1018,6 10 -
11.08.2018 20:00:00 19,8 10,5 9 5 S 1018,2 10 -
11.08.2018 19:00:00 20,2 9,4 13 7 SSW 1018,6 10 -
11.08.2018 18:00:00 21,2 7,8 21 11 SW 1018,9 10 -
11.08.2018 17:00:00 21,8 6,5 15 8 SSW 1019,3 10 -
11.08.2018 16:00:00 22,3 6,9 21 11 S 1019,6 10 -
11.08.2018 15:00:00 21,6 7,0 18 10 SW 1020,6 10 -
11.08.2018 14:00:00 20,8 7,1 16 9 SW 1021,3 10 -
11.08.2018 13:00:00 19,1 7,2 13 7 SW 1021,6 10 -
11.08.2018 12:00:00 18,7 8,6 8 4 WSW 1022,0 10 -
11.08.2018 11:00:00 17,9 8,2 9 5 WSW 1022,3 10 -
11.08.2018 10:00:00 16,8 9,7 9 5 WNW 1022,3 10 -
11.08.2018 09:00:00 14,7 10,1 9 5 W 1022,3 10 -
11.08.2018 08:00:00 12,4 9,2 9 5 W 1022,3 10 -
11.08.2018 07:00:00 10,2 8,3 9 5 SW 1022,0 10 -
11.08.2018 06:00:00 8,2 6,8 5 3 SW 1021,6 10 -
11.08.2018 05:00:00 8,5 6,8 5 3 W 1021,0 10 -
11.08.2018 04:00:00 8,8 7,2 11 6 WSW 1021,0 10 -
11.08.2018 03:00:00 9,1 7,4 0 0 N 1021,0 10 -
11.08.2018 02:00:00 9,6 7,0 0 0 N 1020,6 10 -
11.08.2018 01:00:00 10,6 7,5 9 5 W 1020,3 10 -
11.08.2018 00:00:00 10,7 8,6 8 4 WSW 1019,9 10 -
10.08.2018 23:00:00 10,9 9,3 9 5 WSW 1019,3 10 -
10.08.2018 22:00:00 12,0 10,2 8 4 W 1018,6 10 -
10.08.2018 21:00:00 12,4 10,3 9 5 W 1017,9 10 -
10.08.2018 20:00:00 13,6 10,2 13 7 WSW 1017,2 10 -
10.08.2018 19:00:00 15,1 11,5 16 9 W 1016,9 10 0,0
10.08.2018 18:00:00 14,9 11,8 15 8 W 1016,2 10 0,3
10.08.2018 17:00:00 16,0 11,2 13 7 W 1015,9 10 0,0
10.08.2018 16:00:00 14,7 10,7 15 8 W 1015,9 10 0,0
10.08.2018 15:00:00 14,0 10,0 5 3 W 1015,9 9 -
10.08.2018 14:00:00 12,7 10,4 8 4 WSW 1016,6 10 3,3
10.08.2018 13:00:00 14,1 11,6 15 8 SW 1016,9 10 1,8
10.08.2018 12:00:00 17,7 10,1 24 13 SW 1016,5 10 0,0
10.08.2018 11:00:00 18,2 10,5 28 15 SW 1016,5 10 -
10.08.2018 10:00:00 16,9 10,9 22 12 SW 1016,9 10 -
10.08.2018 09:00:00 15,7 11,1 24 13 SW 1016,9 10 0,0
10.08.2018 08:00:00 13,9 10,3 16 9 SW 1016,6 10 -
10.08.2018 07:00:00 12,3 9,8 13 7 SW 1016,6 10 -
10.08.2018 06:00:00 11,1 9,2 13 7 SW 1016,2 10 -
10.08.2018 05:00:00 11,4 9,6 9 5 SSW 1015,9 10 -
10.08.2018 04:00:00 11,8 10,0 9 5 SW 1016,2 10 -
10.08.2018 03:00:00 12,4 10,6 11 6 SSW 1015,9 10 -
10.08.2018 02:00:00 13,1 11,7 9 5 SSW 1015,9 10 -
10.08.2018 01:00:00 13,0 11,7 11 6 S 1015,9 10 0,5
10.08.2018 00:00:00 13,2 11,8 8 4 SSW 1015,9 10 3,8
09.08.2018 23:00:00 13,4 12,1 5 3 SW 1015,9 8 0,3
09.08.2018 22:00:00 13,0 11,7 8 4 SW 1014,5 10 -
09.08.2018 21:00:00 13,3 11,9 11 6 SSW 1013,8 10 -
09.08.2018 20:00:00 13,3 11,7 8 4 SW 1013,2 10 0,0
09.08.2018 19:00:00 13,2 11,8 0 0 N 1012,8 10 0,5
09.08.2018 18:00:00 13,1 11,7 8 4 WNW 1012,8 10 1,8
09.08.2018 17:00:00 13,0 11,6 8 4 NNW 1012,8 10 2,8
09.08.2018 16:00:00 13,0 11,7 15 8 NNW 1012,2 10 5,6
09.08.2018 15:00:00 14,9 13,4 22 12 N 1011,8 6 4,1
09.08.2018 14:00:00 15,7 14,4 8 4 NNE 1011,8 10 2,0
09.08.2018 13:00:00 15,9 14,4 11 6 ENE 1011,8 10 1,8
09.08.2018 12:00:00 16,7 14,7 5 3 NNE 1012,1 10 0,5
09.08.2018 11:00:00 17,0 14,1 8 4 NE 1012,1 10 0,0
09.08.2018 10:00:00 16,8 13,3 5 3 N 1012,5 10 -
09.08.2018 09:00:00 16,3 13,6 0 0 N 1012,5 10 0,0
09.08.2018 08:00:00 16,0 13,0 0 0 N 1012,8 10 0,0
09.08.2018 07:00:00 15,4 12,7 0 0 N 1012,5 10 0,0
09.08.2018 06:00:00 15,6 12,5 0 0 N 1012,5 10 0,0
09.08.2018 05:00:00 15,7 12,1 0 0 N 1012,1 10 -
09.08.2018 04:00:00 15,9 11,9 8 4 WSW 1012,5 10 0,0
09.08.2018 03:00:00 17,0 11,5 8 4 SW 1012,5 10 -
09.08.2018 02:00:00 17,3 11,1 0 0 N 1012,5 10 -
09.08.2018 01:00:00 17,9 11,0 8 4 SSW 1013,1 10 -
09.08.2018 00:00:00 18,4 10,7 5 3 SSW 1012,5 10 -
08.08.2018 23:00:00 17,7 10,3 8 4 SW 1012,5 10 -
08.08.2018 22:00:00 17,6 9,5 8 4 W 1012,1 10 -

tt = Température de l'air
td = dewpoint
ff = Vitesse du vent
dd = Direction du vent
ppp = reduced air pressure
vv = visibility
rr = Quantités de précipitations

stations d'obs. à proximité